| time (UTC) | temp F | wind direction | speed knots | gust knots | rain 1hr in | rain 24hr in | rain mn in | humidity % | barometer mb |
| 20260508044017 | 48 | 314 | 2.6 | 4.3 | 0.00 | 0.00 | 0.00 | 100 | 942.6 |
| 20260508043617 | 48 | 308 | 2.6 | 4.3 | 0.00 | 0.00 | 0.00 | 100 | 942.5 |
| 20260508043214 | 48 | 317 | 3.5 | 4.3 | 0.00 | 0.00 | 0.00 | 100 | 942.5 |
| 20260508042814 | 48 | 315 | 4.3 | 7.0 | 0.00 | 0.00 | 0.00 | 100 | 942.5 |
| 20260508042414 | 49 | 314 | 4.3 | 6.1 | 0.00 | 0.00 | 0.00 | 100 | 942.4 |
| 20260508042015 | 49 | 311 | 4.3 | 7.0 | 0.00 | 0.00 | 0.00 | 100 | 942.4 |
| 20260508041615 | 49 | 309 | 3.5 | 5.2 | 0.00 | 0.00 | 0.00 | 100 | 942.3 |
| 20260508041212 | 49 | 311 | 3.5 | 5.2 | 0.00 | 0.00 | 0.00 | 100 | 942.3 |
| 20260508040812 | 50 | 303 | 5.2 | 8.7 | 0.00 | 0.00 | 0.00 | 100 | 942.2 |
| 20260508040412 | 50 | 311 | 1.7 | 2.6 | 0.00 | 0.00 | 0.00 | 100 | 942.2 |
| 20260508040012 | 50 | 288 | 1.7 | 2.6 | 0.00 | 0.00 | 0.00 | 100 | 942.1 |
| 20260508035612 | 50 | 285 | 3.5 | 4.3 | 0.00 | 0.00 | 0.00 | 100 | 942.1 |
| 20260508035158 | 50 | 276 | 5.2 | 7.0 | 0.00 | 0.00 | 0.00 | 100 | 942.1 |
| 20260508034758 | 50 | 271 | 3.5 | 5.2 | 0.00 | 0.00 | 0.00 | 100 | 942.1 |
| 20260508033958 | 50 | 271 | 4.3 | 6.1 | 0.00 | 0.00 | 0.00 | 100 | 942.0 |
| 20260508033558 | 50 | 272 | 4.3 | 5.2 | 0.00 | 0.00 | 0.00 | 100 | 942.0 |
| 20260508033155 | 50 | 279 | 4.3 | 7.0 | 0.00 | 0.00 | 0.00 | 100 | 941.9 |
| 20260508032755 | 50 | 275 | 3.5 | 5.2 | 0.00 | 0.00 | 0.00 | 100 | 941.9 |
| 20260508032355 | 50 | 277 | 3.5 | 5.2 | 0.00 | 0.00 | 0.00 | 100 | 941.8 |
| 20260508031955 | 50 | 282 | 1.7 | 3.5 | 0.00 | 0.00 | 0.00 | 100 | 941.7 |
| 20260508031555 | 50 | 282 | 3.5 | 5.2 | 0.00 | 0.00 | 0.00 | 100 | 941.7 |
| 20260508031152 | 50 | 280 | 1.7 | 4.3 | 0.00 | 0.00 | 0.00 | 100 | 941.7 |
| 20260508030752 | 50 | 275 | 4.3 | 6.1 | 0.00 | 0.00 | 0.00 | 100 | 941.8 |
| 20260508030352 | 50 | 275 | 5.2 | 7.0 | 0.00 | 0.00 | 0.00 | 100 | 941.7 |
| 20260508025952 | 50 | 284 | 3.5 | 6.1 | 0.00 | 0.00 | 0.00 | 100 | 941.6 |
| 20260508025549 | 50 | 283 | 3.5 | 5.2 | 0.00 | 0.00 | 0.00 | 100 | 941.5 |
| 20260508025146 | 50 | 283 | 1.7 | 3.5 | 0.00 | 0.00 | 0.00 | 100 | 941.4 |
| 20260508024746 | 50 | 290 | 1.7 | 3.5 | 0.00 | 0.00 | 0.00 | 100 | 941.3 |
| 20260508024346 | 50 | 292 | 1.7 | 2.6 | 0.00 | 0.00 | 0.00 | 100 | 941.5 |
| 20260508023946 | 50 | 279 | 3.5 | 6.1 | 0.00 | 0.00 | 0.00 | 100 | 941.6 |
| 20260508023546 | 50 | 279 | 3.5 | 4.3 | 0.00 | 0.00 | 0.00 | 100 | 941.6 |
| 20260508023143 | 50 | 276 | 3.5 | 5.2 | 0.00 | 0.00 | 0.00 | 100 | 941.6 |
| 20260508022743 | 50 | 266 | 3.5 | 5.2 | 0.00 | 0.00 | 0.00 | 100 | 941.6 |
| 20260508022343 | 50 | 264 | 2.6 | 4.3 | 0.00 | 0.00 | 0.00 | 100 | 941.5 |
| 20260508021943 | 50 | 261 | 2.6 | 2.6 | 0.00 | 0.00 | 0.00 | 100 | 941.4 |
| 20260508021543 | 50 | 276 | 1.7 | 2.6 | 0.00 | 0.00 | 0.00 | 100 | 941.3 |
| 20260508021140 | 50 | 283 | 1.7 | 1.7 | 0.00 | 0.00 | 0.00 | 100 | 941.4 |
| 20260508020740 | 50 | 283 | 1.7 | 2.6 | 0.00 | 0.00 | 0.00 | 100 | 941.4 |
| 20260508020340 | 50 | 247 | 0.9 | 1.7 | 0.00 | 0.00 | 0.00 | 100 | 941.3 |
| 20260508015940 | 50 | 209 | 2.6 | 3.5 | 0.00 | 0.00 | 0.00 | 100 | 941.2 |
| 20260508015540 | 50 | 277 | 0.0 | 0.9 | 0.00 | 0.00 | 0.00 | 100 | 941.5 |
| 20260508015137 | 50 | 277 | 0.9 | 1.7 | 0.00 | 0.00 | 0.00 | 100 | 941.7 |
| 20260508014738 | 50 | 282 | 0.9 | 1.7 | 0.00 | 0.00 | 0.00 | 100 | 941.7 |
| 20260508014338 | 50 | 288 | 1.7 | 1.7 | 0.00 | 0.00 | 0.00 | 100 | 941.8 |
| 20260508013938 | 50 | 278 | 1.7 | 3.5 | 0.00 | 0.00 | 0.00 | 100 | 941.8 |
| 20260508013537 | 50 | 279 | 2.6 | 4.3 | 0.00 | 0.00 | 0.00 | 100 | 941.9 |
| 20260508013134 | 50 | 282 | 2.6 | 5.2 | 0.00 | 0.00 | 0.00 | 100 | 941.9 |
| 20260508012734 | 50 | 279 | 3.5 | 6.1 | 0.00 | 0.00 | 0.00 | 100 | 942.0 |
| 20260508012334 | 50 | 280 | 5.2 | 6.1 | 0.00 | 0.00 | 0.00 | 100 | 942.0 |
| 20260508011934 | 50 | 283 | 4.3 | 7.0 | 0.00 | 0.00 | 0.00 | 100 | 942.0 |
| 20260508011526 | 50 | 277 | 4.3 | 7.0 | 0.00 | 0.00 | 0.00 | 100 | 941.9 |
| 20260508011123 | 50 | 281 | 5.2 | 7.0 | 0.00 | 0.00 | 0.00 | 100 | 941.9 |
| 20260508010723 | 50 | 279 | 7.0 | 8.7 | 0.00 | 0.00 | 0.00 | 100 | 941.9 |
| 20260508005923 | 51 | 278 | 3.5 | 7.8 | 0.00 | 0.00 | 0.00 | 100 | 941.9 |
| 20260508005523 | 51 | 282 | 4.3 | 7.8 | 0.00 | 0.00 | 0.00 | 100 | 941.9 |
| 20260508005116 | 51 | 288 | 5.2 | 7.8 | 0.00 | 0.00 | 0.00 | 100 | 941.9 |
| 20260508004716 | 51 | 292 | 3.5 | 6.1 | 0.00 | 0.00 | 0.00 | 100 | 941.9 |
| 20260508004316 | 51 | 284 | 3.5 | 5.2 | 0.00 | 0.00 | 0.00 | 100 | 941.9 |
| 20260508003916 | 51 | 283 | 4.3 | 5.2 | 0.00 | 0.00 | 0.00 | 100 | 941.9 |
| 20260508003516 | 51 | 279 | 4.3 | 7.0 | 0.00 | 0.00 | 0.00 | 100 | 941.9 |
| 20260508003113 | 51 | 281 | 4.3 | 5.2 | 0.00 | 0.00 | 0.00 | 100 | 942.0 |
| 20260508002713 | 51 | 281 | 3.5 | 5.2 | 0.00 | 0.00 | 0.00 | 100 | 942.0 |
| 20260508002314 | 51 | 285 | 6.1 | 7.8 | 0.00 | 0.00 | 0.00 | 100 | 942.1 |
| 20260508001914 | 51 | 288 | 4.3 | 6.1 | 0.00 | 0.00 | 0.00 | 100 | 942.1 |
| 20260508001514 | 51 | 282 | 4.3 | 7.0 | 0.00 | 0.00 | 0.00 | 100 | 942.1 |
| 20260508001111 | 51 | 279 | 4.3 | 7.0 | 0.00 | 0.00 | 0.00 | 100 | 942.1 |
| 20260508000711 | 51 | 284 | 5.2 | 7.0 | 0.00 | 0.00 | 0.00 | 100 | 942.1 |
| 20260508000312 | 51 | 283 | 6.1 | 8.7 | 0.00 | 0.00 | 0.00 | 100 | 942.1 |
| 20260507235911 | 51 | 268 | 5.2 | 10.4 | 0.00 | 0.00 | 0.00 | 100 | 942.2 |
| 20260507235511 | 51 | 279 | 6.1 | 8.7 | 0.00 | 0.00 | 0.00 | 100 | 942.1 |
| 20260507235108 | 51 | 279 | 4.3 | 7.0 | 0.00 | 0.00 | 0.00 | 100 | 942.2 |
| 20260507234708 | 51 | 284 | 4.3 | 6.1 | 0.00 | 0.00 | 0.00 | 100 | 942.1 |
| 20260507234308 | 51 | 277 | 4.3 | 5.2 | 0.00 | 0.00 | 0.00 | 100 | 942.1 |
| 20260507233908 | 51 | 278 | 3.5 | 5.2 | 0.00 | 0.00 | 0.00 | 100 | 942.1 |
| 20260507233508 | 51 | 265 | 4.3 | 6.1 | 0.00 | 0.00 | 0.00 | 100 | 942.1 |
| 20260507233105 | 51 | 273 | 3.5 | 5.2 | 0.00 | 0.00 | 0.00 | 100 | 942.0 |
| 20260507232705 | 51 | 253 | 4.3 | 6.1 | 0.00 | 0.00 | 0.00 | 100 | 942.1 |
| 20260507232307 | 51 | 243 | 6.1 | 8.7 | 0.00 | 0.00 | 0.00 | 100 | 942.1 |
| 20260507231905 | 51 | 239 | 6.1 | 7.0 | 0.00 | 0.00 | 0.00 | 100 | 942.1 |
| 20260507231505 | 51 | 241 | 5.2 | 7.0 | 0.00 | 0.00 | 0.00 | 100 | 942.1 |
| 20260507231102 | 51 | 244 | 5.2 | 6.1 | 0.00 | 0.00 | 0.00 | 100 | 942.1 |
| 20260507230703 | 51 | 249 | 4.3 | 5.2 | 0.00 | 0.00 | 0.00 | 100 | 942.1 |
| 20260507230303 | 51 | 253 | 5.2 | 7.0 | 0.00 | 0.00 | 0.00 | 100 | 942.1 |
| 20260507225903 | 51 | 257 | 4.3 | 5.2 | 0.00 | 0.00 | 0.00 | 100 | 942.1 |
| 20260507225502 | 51 | 257 | 4.3 | 5.2 | 0.00 | 0.00 | 0.00 | 100 | 942.1 |
| 20260507225059 | 51 | 262 | 4.3 | 6.1 | 0.00 | 0.00 | 0.00 | 100 | 942.1 |
| 20260507224656 | 51 | 247 | 5.2 | 6.1 | 0.00 | 0.00 | 0.00 | 100 | 942.1 |
| 20260507224256 | 51 | 260 | 4.3 | 5.2 | 0.00 | 0.00 | 0.00 | 100 | 942.1 |
| 20260507223845 | 51 | 250 | 4.3 | 5.2 | 0.00 | 0.00 | 0.00 | 100 | 942.1 |
| 20260507223445 | 51 | 244 | 5.2 | 6.1 | 0.00 | 0.00 | 0.00 | 100 | 942.1 |
| 20260507223042 | 51 | 251 | 5.2 | 6.1 | 0.00 | 0.00 | 0.00 | 100 | 942.2 |
| 20260507222642 | 51 | 250 | 4.3 | 6.1 | 0.00 | 0.00 | 0.00 | 100 | 942.2 |
| 20260507222242 | 51 | 248 | 5.2 | 6.1 | 0.00 | 0.00 | 0.00 | 100 | 942.2 |
| 20260507221842 | 51 | 266 | 4.3 | 5.2 | 0.00 | 0.00 | 0.00 | 100 | 942.2 |
| 20260507221442 | 51 | 253 | 4.3 | 5.2 | 0.00 | 0.00 | 0.00 | 100 | 942.2 |
| 20260507221039 | 51 | 248 | 5.2 | 7.0 | 0.00 | 0.00 | 0.00 | 100 | 942.3 |
| 20260507220639 | 51 | 239 | 5.2 | 6.1 | 0.00 | 0.00 | 0.00 | 100 | 942.2 |
| 20260507220239 | 51 | 240 | 5.2 | 6.1 | 0.00 | 0.00 | 0.00 | 100 | 942.2 |
| 20260507215839 | 52 | 241 | 5.2 | 7.0 | 0.00 | 0.00 | 0.00 | 100 | 942.2 |
| 20260507215439 | 52 | 244 | 4.3 | 5.2 | 0.00 | 0.00 | 0.00 | 100 | 942.1 |
| 20260507215036 | 52 | 253 | 3.5 | 3.5 | 0.00 | 0.00 | 0.00 | 100 | 942.1 |
| 20260507214636 | 52 | 296 | 0.9 | 2.6 | 0.00 | 0.00 | 0.00 | 100 | 942.0 |
| 20260507214236 | 52 | 305 | 0.9 | 1.7 | 0.00 | 0.00 | 0.00 | 100 | 941.9 |
| 20260507213836 | 52 | 306 | 1.7 | 2.6 | 0.00 | 0.00 | 0.00 | 100 | 941.9 |
| 20260507213436 | 52 | 313 | 1.7 | 2.6 | 0.00 | 0.00 | 0.00 | 100 | 941.8 |
| 20260507213034 | 52 | 323 | 0.9 | 1.7 | 0.00 | 0.00 | 0.00 | 100 | 941.8 |
| 20260507212634 | 52 | 349 | 1.7 | 3.5 | 0.00 | 0.00 | 0.00 | 100 | 941.7 |
| 20260507212234 | 52 | 329 | 1.7 | 2.6 | 0.00 | 0.00 | 0.00 | 100 | 941.8 |
| 20260507211434 | 52 | 311 | 1.7 | 2.6 | 0.00 | 0.00 | 0.00 | 100 | 941.8 |
| 20260507211031 | 52 | 303 | 3.5 | 6.1 | 0.00 | 0.00 | 0.00 | 100 | 941.9 |
| 20260507210630 | 52 | 294 | 2.6 | 4.3 | 0.00 | 0.00 | 0.00 | 100 | 941.9 |
| 20260507210230 | 51 | 280 | 4.3 | 7.0 | 0.00 | 0.00 | 0.00 | 100 | 942.0 |
| 20260507205830 | 51 | 276 | 7.0 | 8.7 | 0.00 | 0.00 | 0.00 | 100 | 942.0 |
| 20260507205430 | 51 | 277 | 6.1 | 7.8 | 0.00 | 0.00 | 0.00 | 100 | 942.0 |
| 20260507205027 | 51 | 277 | 6.1 | 7.8 | 0.00 | 0.00 | 0.00 | 100 | 942.0 |
| 20260507204628 | 52 | 273 | 6.1 | 7.8 | 0.00 | 0.00 | 0.00 | 100 | 942.0 |
| 20260507204224 | 52 | 259 | 7.0 | 10.4 | 0.00 | 0.00 | 0.00 | 100 | 942.0 |
| 20260507203824 | 52 | 263 | 7.0 | 11.3 | 0.00 | 0.00 | 0.00 | 100 | 942.0 |
| 20260507203424 | 52 | 247 | 7.0 | 8.7 | 0.00 | 0.00 | 0.00 | 100 | 941.9 |
| 20260507203021 | 52 | 261 | 6.1 | 8.7 | 0.00 | 0.00 | 0.00 | 100 | 942.0 |
| 20260507202622 | 52 | 258 | 6.1 | 7.8 | 0.00 | 0.00 | 0.00 | 100 | 942.0 |
| 20260507202222 | 52 | 268 | 6.1 | 8.7 | 0.00 | 0.00 | 0.00 | 100 | 942.0 |
| 20260507201822 | 52 | 260 | 5.2 | 7.0 | 0.00 | 0.00 | 0.00 | 100 | 942.0 |
| 20260507201422 | 52 | 273 | 3.5 | 5.2 | 0.00 | 0.00 | 0.00 | 100 | 941.9 |
| 20260507201019 | 52 | 272 | 6.1 | 7.0 | 0.00 | 0.00 | 0.00 | 100 | 941.9 |
| 20260507200619 | 53 | 280 | 5.2 | 7.0 | 0.00 | 0.00 | 0.00 | 100 | 941.9 |
| 20260507200210 | 53 | 280 | 7.0 | 9.6 | 0.00 | 0.00 | 0.00 | 100 | 941.8 |
| 20260507195810 | 53 | 265 | 7.0 | 9.6 | 0.00 | 0.00 | 0.00 | 100 | 941.9 |
| 20260507195410 | 53 | 254 | 7.0 | 8.7 | 0.00 | 0.00 | 0.00 | 100 | 941.8 |
| 20260507195007 | 54 | 246 | 5.2 | 6.1 | 0.00 | 0.00 | 0.00 | 100 | 941.9 |
| 20260507194608 | 54 | 282 | 7.8 | 10.4 | 0.00 | 0.00 | 0.00 | 100 | 942.0 |
| 20260507194208 | 54 | 288 | 3.5 | 7.0 | 0.00 | 0.00 | 0.00 | 100 | 941.9 |
| 20260507193808 | 55 | 265 | 4.3 | 6.1 | 0.00 | 0.00 | 0.00 | 100 | 941.9 |
| 20260507193408 | 55 | 282 | 4.3 | 5.2 | 0.00 | 0.00 | 0.00 | 100 | 941.9 |
| 20260507193005 | 55 | 282 | 2.6 | 4.3 | 0.00 | 0.00 | 0.00 | 100 | 941.8 |
| 20260507192605 | 55 | 278 | 1.7 | 3.5 | 0.00 | 0.00 | 0.00 | 100 | 941.8 |
| 20260507192205 | 55 | 276 | 2.6 | 3.5 | 0.00 | 0.00 | 0.00 | 100 | 941.7 |
| 20260507191805 | 55 | 316 | 2.6 | 5.2 | 0.00 | 0.00 | 0.00 | 100 | 941.6 |
| 20260507191405 | 55 | 337 | 3.5 | 5.2 | 0.00 | 0.00 | 0.00 | 100 | 941.4 |
| 20260507191002 | 55 | 325 | 4.3 | 5.2 | 0.00 | 0.00 | 0.00 | 100 | 941.4 |
| 20260507190602 | 55 | 26 | 4.3 | 5.2 | 0.00 | 0.00 | 0.00 | 100 | 941.3 |
| 20260507190202 | 55 | 113 | 5.2 | 7.0 | 0.00 | 0.00 | 0.00 | 100 | 941.3 |
| 20260507185802 | 56 | 15 | 3.5 | 5.2 | 0.00 | 0.00 | 0.00 | 100 | 941.4 |
| 20260507185402 | 56 | 332 | 2.6 | 3.5 | 0.00 | 0.00 | 0.00 | 100 | 941.4 |
| 20260507184959 | 55 | 331 | 1.7 | 4.3 | 0.00 | 0.00 | 0.00 | 100 | 941.5 |
| 20260507184559 | 55 | 318 | 2.6 | 4.3 | 0.00 | 0.00 | 0.00 | 100 | 941.5 |
| 20260507184159 | 55 | 317 | 4.3 | 5.2 | 0.00 | 0.00 | 0.00 | 100 | 941.4 |
| 20260507183756 | 55 | 313 | 4.3 | 6.1 | 0.00 | 0.00 | 0.00 | 100 | 941.4 |
| 20260507183356 | 55 | 323 | 3.5 | 6.1 | 0.00 | 0.00 | 0.00 | 100 | 941.4 |
| 20260507182953 | 56 | 313 | 5.2 | 7.0 | 0.00 | 0.00 | 0.00 | 100 | 941.3 |
| 20260507182553 | 56 | 312 | 4.3 | 6.1 | 0.00 | 0.00 | 0.00 | 100 | 941.3 |
| 20260507182153 | 56 | 313 | 4.3 | 6.1 | 0.00 | 0.00 | 0.00 | 100 | 941.3 |
| 20260507181753 | 56 | 315 | 4.3 | 7.8 | 0.00 | 0.00 | 0.00 | 100 | 941.3 |
| 20260507181353 | 57 | 313 | 6.1 | 8.7 | 0.00 | 0.00 | 0.00 | 100 | 941.2 |
| 20260507180950 | 57 | 306 | 4.3 | 6.1 | 0.00 | 0.00 | 0.00 | 100 | 941.2 |
| 20260507180550 | 57 | 311 | 2.6 | 5.2 | 0.00 | 0.00 | 0.00 | 100 | 941.1 |
| 20260507180150 | 57 | 313 | 3.5 | 5.2 | 0.00 | 0.00 | 0.00 | 100 | 941.1 |
| 20260507175750 | 58 | 297 | 3.5 | 5.2 | 0.00 | 0.00 | 0.00 | 100 | 941.0 |
| 20260507175350 | 58 | 289 | 6.1 | 7.8 | 0.00 | 0.00 | 0.00 | 100 | 941.0 |
| 20260507174948 | 58 | 289 | 5.2 | 8.7 | 0.00 | 0.00 | 0.00 | 100 | 941.0 |
| 20260507174547 | 58 | 288 | 7.8 | 11.3 | 0.00 | 0.00 | 0.00 | 100 | 941.0 |
| 20260507174148 | 58 | 262 | 7.8 | 9.6 | 0.00 | 0.00 | 0.00 | 100 | 940.9 |
| 20260507173748 | 58 | 274 | 8.7 | 15.6 | 0.00 | 0.00 | 0.00 | 100 | 940.9 |
| 20260507173348 | 58 | 249 | 15.6 | 19.1 | 0.00 | 0.00 | 0.00 | 100 | 940.8 |
| 20260507172933 | 58 | 234 | 14.8 | 18.2 | 0.00 | 0.00 | 0.00 | 100 | 940.8 |
| 20260507172533 | 58 | 233 | 15.6 | 20.9 | 0.00 | 0.00 | 0.00 | 100 | 940.7 |
| 20260507171733 | 58 | 231 | 17.4 | 23.5 | 0.00 | 0.00 | 0.00 | 100 | 940.8 |
| 20260507171334 | 58 | 236 | 13.0 | 15.6 | 0.00 | 0.00 | 0.00 | 100 | 940.6 |
| 20260507170931 | 58 | 232 | 13.9 | 16.5 | 0.00 | 0.00 | 0.00 | 100 | 940.6 |
| 20260507170531 | 58 | 229 | 13.9 | 17.4 | 0.00 | 0.00 | 0.00 | 100 | 940.6 |
| 20260507170131 | 58 | 227 | 12.2 | 15.6 | 0.00 | 0.00 | 0.00 | 100 | 940.6 |
| 20260507165731 | 59 | 227 | 12.2 | 14.8 | 0.00 | 0.00 | 0.00 | 100 | 940.6 |
| 20260507165331 | 59 | 227 | 11.3 | 14.8 | 0.00 | 0.00 | 0.00 | 100 | 940.5 |
| 20260507164928 | 59 | 228 | 12.2 | 15.6 | 0.00 | 0.00 | 0.00 | 100 | 940.5 |
| 20260507164527 | 59 | 228 | 13.0 | 16.5 | 0.00 | 0.00 | 0.00 | 100 | 940.4 |
| 20260507164128 | 59 | 227 | 10.4 | 17.4 | 0.00 | 0.00 | 0.00 | 100 | 940.4 |
| 20260507163728 | 59 | 225 | 12.2 | 17.4 | 0.00 | 0.00 | 0.00 | 100 | 940.3 |
| 20260507163324 | 60 | 228 | 13.0 | 17.4 | 0.00 | 0.00 | 0.00 | 100 | 940.3 |
| 20260507162921 | 60 | 227 | 12.2 | 17.4 | 0.00 | 0.00 | 0.00 | 100 | 940.4 |
| 20260507162521 | 60 | 228 | 13.9 | 18.2 | 0.00 | 0.00 | 0.00 | 100 | 940.4 |
| 20260507162122 | 61 | 229 | 12.2 | 17.4 | 0.00 | 0.00 | 0.00 | 100 | 940.3 |
| 20260507161722 | 61 | 228 | 12.2 | 18.2 | 0.00 | 0.00 | 0.00 | 100 | 940.4 |
| 20260507161322 | 60 | 229 | 9.6 | 12.2 | 0.00 | 0.00 | 0.00 | 100 | 940.4 |
| 20260507160919 | 60 | 231 | 7.8 | 12.2 | 0.00 | 0.00 | 0.00 | 100 | 940.5 |
| 20260507160519 | 60 | 233 | 8.7 | 12.2 | 0.00 | 0.00 | 0.00 | 100 | 940.4 |
| 20260507160119 | 61 | 227 | 13.0 | 16.5 | 0.00 | 0.00 | 0.00 | 100 | 940.4 |
| 20260507155719 | 61 | 232 | 9.6 | 15.6 | 0.00 | 0.00 | 0.00 | 100 | 940.4 |
| 20260507155319 | 61 | 234 | 9.6 | 13.9 | 0.00 | 0.00 | 0.00 | 100 | 940.4 |
| 20260507154916 | 61 | 230 | 8.7 | 13.0 | 0.00 | 0.00 | 0.00 | 100 | 940.5 |
| 20260507154516 | 60 | 229 | 15.6 | 19.1 | 0.00 | 0.00 | 0.00 | 100 | 940.4 |
| 20260507154116 | 60 | 230 | 13.9 | 18.2 | 0.00 | 0.00 | 0.00 | 100 | 940.5 |
| 20260507153716 | 60 | 227 | 15.6 | 20.0 | 0.00 | 0.00 | 0.00 | 100 | 940.6 |
| 20260507153316 | 60 | 231 | 13.9 | 20.9 | 0.00 | 0.00 | 0.00 | 100 | 940.6 |
| 20260507152913 | 60 | 230 | 11.3 | 15.6 | 0.00 | 0.00 | 0.00 | 100 | 940.7 |
| 20260507152513 | 59 | 225 | 10.4 | 16.5 | 0.00 | 0.00 | 0.00 | 100 | 940.8 |
| 20260507152113 | 59 | 228 | 11.3 | 14.8 | 0.00 | 0.00 | 0.00 | 100 | 940.8 |
| 20260507151713 | 59 | 228 | 13.0 | 17.4 | 0.00 | 0.00 | 0.00 | 100 | 940.8 |
| 20260507151313 | 59 | 228 | 7.8 | 12.2 | 0.00 | 0.00 | 0.00 | 100 | 940.9 |
| 20260507150910 | 60 | 227 | 10.4 | 13.0 | 0.00 | 0.00 | 0.00 | 100 | 940.9 |
| 20260507150510 | 60 | 227 | 9.6 | 13.0 | 0.00 | 0.00 | 0.00 | 100 | 940.9 |
| 20260507150110 | 60 | 227 | 10.4 | 13.9 | 0.00 | 0.00 | 0.00 | 100 | 940.8 |
| 20260507145710 | 60 | 228 | 9.6 | 13.0 | 0.00 | 0.00 | 0.00 | 100 | 940.8 |
| 20260507145301 | 60 | 233 | 8.7 | 11.3 | 0.00 | 0.00 | 0.00 | 100 | 940.8 |
| 20260507144859 | 60 | 236 | 8.7 | 13.0 | 0.00 | 0.00 | 0.00 | 100 | 940.8 |
| 20260507144459 | 61 | 236 | 10.4 | 14.8 | 0.00 | 0.00 | 0.00 | 100 | 940.8 |
| 20260507143659 | 61 | 235 | 8.7 | 11.3 | 0.00 | 0.00 | 0.00 | 100 | 940.9 |
| 20260507143259 | 61 | 236 | 10.4 | 15.6 | 0.00 | 0.00 | 0.00 | 100 | 940.8 |
| 20260507142852 | 61 | 234 | 11.3 | 17.4 | 0.00 | 0.00 | 0.00 | 100 | 940.8 |
| 20260507142452 | 61 | 232 | 13.0 | 17.4 | 0.00 | 0.00 | 0.00 | 100 | 940.8 |
| 20260507142052 | 61 | 233 | 11.3 | 16.5 | 0.00 | 0.00 | 0.00 | 100 | 940.8 |
| 20260507141652 | 61 | 237 | 16.5 | 19.1 | 0.00 | 0.00 | 0.00 | 100 | 940.7 |
| 20260507141252 | 61 | 241 | 18.2 | 22.6 | 0.00 | 0.00 | 0.00 | 100 | 940.7 |
| 20260507140849 | 62 | 237 | 18.2 | 26.1 | 0.00 | 0.00 | 0.00 | 100 | 940.7 |
| 20260507140449 | 62 | 237 | 20.0 | 30.4 | 0.00 | 0.00 | 0.00 | 100 | 940.7 |
| 20260507140049 | 62 | 233 | 16.5 | 24.3 | 0.00 | 0.00 | 0.00 | 100 | 940.7 |
| 20260507135649 | 62 | 237 | 17.4 | 21.7 | 0.00 | 0.00 | 0.00 | 100 | 940.7 |
| 20260507135249 | 63 | 239 | 18.2 | 24.3 | 0.00 | 0.00 | 0.00 | 100 | 940.7 |
| 20260507134846 | 63 | 237 | 13.0 | 19.1 | 0.00 | 0.00 | 0.00 | 100 | 940.6 |
| 20260507134447 | 63 | 241 | 17.4 | 20.0 | 0.00 | 0.00 | 0.00 | 100 | 940.5 |
| 20260507134047 | 63 | 237 | 17.4 | 23.5 | 0.00 | 0.00 | 0.00 | 100 | 940.5 |
| 20260507133647 | 63 | 233 | 15.6 | 20.9 | 0.00 | 0.00 | 0.00 | 100 | 940.5 |
| 20260507133247 | 63 | 233 | 12.2 | 16.5 | 0.00 | 0.00 | 0.00 | 100 | 940.4 |
| 20260507132844 | 63 | 232 | 14.8 | 20.0 | 0.00 | 0.00 | 0.00 | 100 | 940.4 |
| 20260507132444 | 63 | 237 | 13.9 | 20.0 | 0.00 | 0.00 | 0.00 | 100 | 940.3 |
| 20260507132044 | 63 | 233 | 14.8 | 20.9 | 0.00 | 0.00 | 0.00 | 100 | 940.4 |
| 20260507131644 | 63 | 235 | 18.2 | 21.7 | 0.00 | 0.00 | 0.00 | 100 | 940.3 |
| 20260507131244 | 63 | 237 | 15.6 | 22.6 | 0.00 | 0.00 | 0.00 | 100 | 940.4 |
| 20260507130841 | 63 | 239 | 13.9 | 17.4 | 0.00 | 0.00 | 0.00 | 100 | 940.4 |
| 20260507130441 | 63 | 241 | 15.6 | 20.9 | 0.00 | 0.00 | 0.00 | 100 | 940.4 |
| 20260507130041 | 63 | 240 | 14.8 | 19.1 | 0.00 | 0.00 | 0.00 | 100 | 940.3 |
| 20260507125641 | 63 | 238 | 15.6 | 20.0 | 0.00 | 0.00 | 0.00 | 100 | 940.4 |
| 20260507125241 | 62 | 240 | 15.6 | 17.4 | 0.00 | 0.00 | 0.00 | 100 | 940.3 |
| 20260507124838 | 62 | 243 | 17.4 | 22.6 | 0.00 | 0.00 | 0.00 | 100 | 940.3 |
| 20260507124438 | 61 | 243 | 20.9 | 26.1 | 0.00 | 0.00 | 0.00 | 100 | 940.3 |
| 20260507124038 | 61 | 245 | 20.0 | 26.1 | 0.00 | 0.00 | 0.00 | 100 | 940.3 |
| 20260507123638 | 62 | 249 | 25.2 | 30.4 | 0.00 | 0.00 | 0.00 | 100 | 940.5 |
| 20260507123238 | 62 | 246 | 26.1 | 36.5 | 0.00 | 0.00 | 0.00 | 100 | 940.5 |
| 20260507122835 | 63 | 245 | 25.2 | 34.8 | 0.00 | 0.00 | 0.00 | 100 | 940.4 |
| 20260507122432 | 63 | 248 | 26.1 | 33.9 | 0.00 | 0.00 | 0.00 | 100 | 940.5 |
| 20260507122032 | 63 | 248 | 25.2 | 34.8 | 0.00 | 0.00 | 0.00 | 100 | 940.4 |
| 20260507121620 | 63 | 245 | 23.5 | 36.5 | 0.00 | 0.00 | 0.00 | 100 | 940.4 |
| 20260507121221 | 63 | 243 | 23.5 | 33.9 | 0.00 | 0.00 | 0.00 | 100 | 940.4 |
| 20260507120818 | 64 | 241 | 22.6 | 33.9 | 0.00 | 0.00 | 0.00 | 100 | 940.5 |
| 20260507120418 | 64 | 241 | 22.6 | 31.3 | 0.00 | 0.00 | 0.00 | 100 | 940.5 |
| 20260507120018 | 64 | 243 | 17.4 | 22.6 | 0.00 | 0.00 | 0.00 | 100 | 940.5 |
| 20260507115618 | 64 | 242 | 21.7 | 30.4 | 0.00 | 0.00 | 0.00 | 100 | 940.5 |
| 20260507115218 | 64 | 245 | 22.6 | 30.4 | 0.00 | 0.00 | 0.00 | 100 | 940.4 |
| 20260507114815 | 64 | 244 | 26.1 | 38.2 | 0.00 | 0.00 | 0.00 | 100 | 940.4 |
| 20260507114415 | 65 | 240 | 16.5 | 20.0 | 0.00 | 0.00 | 0.00 | 100 | 940.5 |
| 20260507114015 | 65 | 242 | 21.7 | 33.0 | 0.00 | 0.00 | 0.00 | 100 | 940.5 |
| 20260507113615 | 65 | 240 | 17.4 | 24.3 | 0.00 | 0.00 | 0.00 | 100 | 940.6 |
| 20260507113215 | 65 | 238 | 17.4 | 24.3 | 0.00 | 0.00 | 0.00 | 100 | 940.6 |
| 20260507112812 | 65 | 239 | 15.6 | 22.6 | 0.00 | 0.00 | 0.00 | 100 | 940.5 |
| 20260507112412 | 65 | 241 | 19.1 | 23.5 | 0.00 | 0.00 | 0.00 | 100 | 940.5 |
| 20260507112012 | 64 | 238 | 18.2 | 24.3 | 0.00 | 0.00 | 0.00 | 100 | 940.6 |
| 20260507111612 | 64 | 237 | 16.5 | 25.2 | 0.00 | 0.00 | 0.00 | 100 | 940.5 |
| 20260507111212 | 64 | 239 | 15.6 | 21.7 | 0.00 | 0.00 | 0.00 | 100 | 940.5 |
| 20260507110809 | 64 | 241 | 16.5 | 23.5 | 0.00 | 0.00 | 0.00 | 100 | 940.6 |
| 20260507110409 | 65 | 241 | 15.6 | 20.9 | 0.00 | 0.00 | 0.00 | 100 | 940.6 |
| 20260507110009 | 65 | 241 | 18.2 | 26.1 | 0.00 | 0.00 | 0.00 | 100 | 940.6 |
| 20260507105210 | 65 | 241 | 17.4 | 29.5 | 0.00 | 0.00 | 0.00 | 100 | 940.5 |
| 20260507104807 | 66 | 241 | 19.1 | 24.3 | 0.00 | 0.00 | 0.00 | 100 | 940.5 |
| 20260507104406 | 66 | 241 | 19.1 | 27.8 | 0.00 | 0.00 | 0.00 | 100 | 940.5 |
| 20260507104006 | 65 | 246 | 24.3 | 33.0 | 0.00 | 0.00 | 0.00 | 100 | 940.5 |
| 20260507103606 | 65 | 244 | 26.9 | 34.8 | 0.00 | 0.00 | 0.00 | 100 | 940.5 |
| 20260507103206 | 65 | 244 | 23.5 | 33.0 | 0.00 | 0.00 | 0.00 | 100 | 940.5 |
| 20260507102803 | 65 | 244 | 28.7 | 38.2 | 0.00 | 0.00 | 0.00 | 100 | 940.4 |
| 20260507102404 | 65 | 243 | 24.3 | 38.2 | 0.00 | 0.00 | 0.00 | 100 | 940.4 |
| 20260507102000 | 66 | 245 | 27.8 | 38.2 | 0.00 | 0.00 | 0.00 | 100 | 940.4 |
| 20260507101601 | 66 | 243 | 25.2 | 37.4 | 0.00 | 0.00 | 0.00 | 100 | 940.4 |
| 20260507101200 | 66 | 245 | 20.0 | 30.4 | 0.00 | 0.00 | 0.00 | 100 | 940.5 |
| 20260507100757 | 66 | 250 | 23.5 | 30.4 | 0.00 | 0.00 | 0.00 | 100 | 940.4 |
| 20260507100357 | 66 | 245 | 24.3 | 30.4 | 0.00 | 0.00 | 0.00 | 100 | 940.4 |
| 20260507095957 | 65 | 247 | 23.5 | 32.2 | 0.00 | 0.00 | 0.00 | 100 | 940.5 |
| 20260507095557 | 64 | 245 | 20.9 | 29.5 | 0.00 | 0.00 | 0.00 | 100 | 940.6 |
| 20260507095157 | 64 | 245 | 28.7 | 37.4 | 0.00 | 0.00 | 0.00 | 100 | 940.5 |
| 20260507094755 | 64 | 242 | 22.6 | 31.3 | 0.00 | 0.00 | 0.00 | 100 | 940.5 |
| 20260507094355 | 64 | 249 | 26.1 | 33.9 | 0.00 | 0.00 | 0.00 | 100 | 940.5 |
| 20260507093946 | 65 | 242 | 20.9 | 31.3 | 0.00 | 0.00 | 0.00 | 100 | 940.4 |
| 20260507093546 | 65 | 242 | 22.6 | 31.3 | 0.00 | 0.00 | 0.00 | 100 | 940.4 |
| 20260507093146 | 66 | 242 | 22.6 | 33.9 | 0.00 | 0.00 | 0.00 | 100 | 940.4 |
| 20260507092743 | 66 | 242 | 26.1 | 33.0 | 0.00 | 0.00 | 0.00 | 100 | 940.4 |
| 20260507092343 | 65 | 243 | 20.9 | 28.7 | 0.00 | 0.00 | 0.00 | 100 | 940.4 |
| 20260507091943 | 64 | 243 | 20.9 | 32.2 | 0.00 | 0.00 | 0.00 | 100 | 940.4 |
| 20260507091543 | 64 | 244 | 28.7 | 34.8 | 0.00 | 0.00 | 0.00 | 100 | 940.3 |
| 20260507091143 | 64 | 244 | 26.1 | 34.8 | 0.00 | 0.00 | 0.00 | 100 | 940.3 |
| 20260507090741 | 64 | 243 | 27.8 | 35.6 | 0.00 | 0.00 | 0.00 | 100 | 940.3 |
| 20260507090341 | 63 | 242 | 20.9 | 29.5 | 0.00 | 0.00 | 0.00 | 100 | 940.2 |
| 20260507085941 | 63 | 243 | 25.2 | 34.8 | 0.00 | 0.00 | 0.00 | 100 | 940.3 |
| 20260507085541 | 63 | 241 | 21.7 | 33.9 | 0.00 | 0.00 | 0.00 | 100 | 940.3 |
| 20260507085141 | 63 | 242 | 20.9 | 26.1 | 0.00 | 0.00 | 0.00 | 100 | 940.2 |
| 20260507084738 | 63 | 242 | 22.6 | 30.4 | 0.00 | 0.00 | 0.00 | 100 | 940.3 |
| 20260507084338 | 63 | 243 | 19.1 | 24.3 | 0.00 | 0.00 | 0.00 | 100 | 940.3 |
| 20260507083938 | 63 | 239 | 19.1 | 28.7 | 0.00 | 0.00 | 0.00 | 100 | 940.2 |
| 20260507083537 | 64 | 242 | 18.2 | 27.8 | 0.00 | 0.00 | 0.00 | 100 | 940.1 |
| 20260507083137 | 64 | 241 | 15.6 | 20.9 | 0.00 | 0.00 | 0.00 | 100 | 940.2 |
| 20260507082735 | 64 | 238 | 15.6 | 21.7 | 0.00 | 0.00 | 0.00 | 100 | 940.1 |
| 20260507082335 | 64 | 243 | 20.0 | 23.5 | 0.00 | 0.00 | 0.00 | 100 | 940.1 |
| 20260507081935 | 64 | 244 | 20.0 | 28.7 | 0.00 | 0.00 | 0.00 | 100 | 940.1 |
| 20260507081532 | 63 | 242 | 16.5 | 23.5 | 0.00 | 0.00 | 0.00 | 100 | 940.0 |
| 20260507081132 | 63 | 244 | 21.7 | 28.7 | 0.00 | 0.00 | 0.00 | 100 | 940.0 |
| 20260507080729 | 63 | 237 | 18.2 | 25.2 | 0.00 | 0.00 | 0.00 | 100 | 940.0 |
| 20260507080329 | 63 | 234 | 11.3 | 17.4 | 0.00 | 0.00 | 0.00 | 100 | 940.0 |
| 20260507075929 | 63 | 230 | 14.8 | 21.7 | 0.00 | 0.00 | 0.00 | 100 | 940.1 |
| 20260507075529 | 63 | 226 | 17.4 | 22.6 | 0.00 | 0.00 | 0.00 | 100 | 940.0 |
| 20260507075129 | 63 | 235 | 12.2 | 17.4 | 0.00 | 0.00 | 0.00 | 100 | 940.0 |
| 20260507074726 | 62 | 236 | 13.9 | 17.4 | 0.00 | 0.00 | 0.00 | 100 | 939.9 |
| 20260507074326 | 62 | 232 | 13.9 | 20.9 | 0.00 | 0.00 | 0.00 | 100 | 940.0 |
| 20260507073926 | 62 | 234 | 12.2 | 14.8 | 0.00 | 0.00 | 0.00 | 100 | 940.0 |
| 20260507073526 | 61 | 234 | 9.6 | 15.6 | 0.00 | 0.00 | 0.00 | 100 | 940.0 |
| 20260507073126 | 61 | 232 | 10.4 | 15.6 | 0.00 | 0.00 | 0.00 | 100 | 940.0 |
| 20260507072723 | 61 | 236 | 13.9 | 16.5 | 0.00 | 0.00 | 0.00 | 100 | 940.0 |
| 20260507072323 | 60 | 234 | 16.5 | 21.7 | 0.00 | 0.00 | 0.00 | 100 | 940.0 |
| 20260507071923 | 60 | 234 | 18.2 | 22.6 | 0.00 | 0.00 | 0.00 | 100 | 939.9 |
| 20260507071523 | 60 | 238 | 13.9 | 20.9 | 0.00 | 0.00 | 0.00 | 100 | 939.9 |
| 20260507071123 | 60 | 240 | 13.9 | 17.4 | 0.00 | 0.00 | 0.00 | 100 | 939.8 |
| 20260507070709 | 60 | 236 | 13.0 | 15.6 | 0.00 | 0.00 | 0.00 | 100 | 939.8 |
| 20260507070309 | 60 | 240 | 16.5 | 19.1 | 0.00 | 0.00 | 0.00 | 100 | 939.7 |
| 20260507065509 | 60 | 242 | 19.1 | 22.6 | 0.00 | 0.00 | 0.00 | 100 | 939.5 |
| 20260507065109 | 60 | 243 | 17.4 | 22.6 | 0.00 | 0.00 | 0.00 | 100 | 939.4 |
| 20260507064706 | 60 | 242 | 20.0 | 26.1 | 0.00 | 0.00 | 0.00 | 100 | 939.4 |
| 20260507064306 | 60 | 243 | 17.4 | 23.5 | 0.00 | 0.00 | 0.00 | 100 | 939.3 |
| 20260507063907 | 61 | 241 | 20.0 | 23.5 | 0.00 | 0.00 | 0.00 | 100 | 939.4 |
| 20260507063507 | 61 | 252 | 17.4 | 23.5 | 0.00 | 0.00 | 0.00 | 100 | 939.4 |
| 20260507063107 | 61 | 245 | 19.1 | 23.5 | 0.00 | 0.00 | 0.00 | 100 | 939.4 |
| 20260507062704 | 61 | 244 | 17.4 | 21.7 | 0.00 | 0.00 | 0.00 | 100 | 939.4 |
| 20260507062306 | 61 | 254 | 16.5 | 21.7 | 0.00 | 0.00 | 0.00 | 100 | 939.4 |
| 20260507061903 | 61 | 232 | 15.6 | 18.2 | 0.00 | 0.00 | 0.00 | 100 | 939.4 |
| 20260507061503 | 61 | 235 | 13.9 | 16.5 | 0.00 | 0.00 | 0.00 | 100 | 939.4 |
| 20260507061100 | 62 | 233 | 12.2 | 18.2 | 0.00 | 0.00 | 0.00 | 100 | 939.4 |
| 20260507060657 | 62 | 232 | 10.4 | 15.6 | 0.00 | 0.00 | 0.00 | 100 | 939.3 |
| 20260507060257 | 61 | 233 | 12.2 | 15.6 | 0.00 | 0.00 | 0.00 | 100 | 939.1 |
| 20260507055857 | 61 | 238 | 11.3 | 15.6 | 0.00 | 0.00 | 0.00 | 100 | 939.1 |
| 20260507055457 | 61 | 233 | 13.0 | 19.1 | 0.00 | 0.00 | 0.00 | 100 | 939.0 |
| 20260507055057 | 61 | 233 | 12.2 | 19.1 | 0.00 | 0.00 | 0.00 | 100 | 938.9 |
| 20260507054654 | 60 | 233 | 11.3 | 15.6 | 0.00 | 0.00 | 0.00 | 100 | 938.9 |
| 20260507054255 | 60 | 230 | 11.3 | 13.9 | 0.00 | 0.00 | 0.00 | 100 | 939.0 |
| 20260507053855 | 60 | 236 | 10.4 | 16.5 | 0.00 | 0.00 | 0.00 | 100 | 938.9 |
| 20260507053455 | 60 | 233 | 10.4 | 13.9 | 0.00 | 0.00 | 0.00 | 100 | 939.0 |
| 20260507053055 | 60 | 235 | 9.6 | 14.8 | 0.00 | 0.00 | 0.00 | 100 | 939.0 |
| 20260507052652 | 60 | 237 | 9.6 | 12.2 | 0.00 | 0.00 | 0.00 | 100 | 939.0 |
| 20260507052252 | 60 | 236 | 13.0 | 15.6 | 0.00 | 0.00 | 0.00 | 100 | 939.0 |
| 20260507051852 | 60 | 235 | 11.3 | 16.5 | 0.00 | 0.00 | 0.00 | 100 | 939.1 |
| 20260507051452 | 60 | 235 | 12.2 | 16.5 | 0.00 | 0.00 | 0.00 | 100 | 939.1 |
| 20260507051052 | 59 | 229 | 13.0 | 18.2 | 0.00 | 0.00 | 0.00 | 100 | 939.1 |
| 20260507050649 | 59 | 230 | 13.9 | 19.1 | 0.00 | 0.00 | 0.00 | 100 | 939.2 |
| 20260507050249 | 59 | 233 | 14.8 | 19.1 | 0.00 | 0.00 | 0.00 | 100 | 939.2 |
| 20260507045849 | 59 | 234 | 15.6 | 19.1 | 0.00 | 0.00 | 0.00 | 100 | 939.2 |
| 20260507045449 | 59 | 236 | 13.9 | 18.2 | 0.00 | 0.00 | 0.00 | 100 | 939.2 |
| 20260507045049 | 59 | 236 | 13.9 | 15.6 | 0.00 | 0.00 | 0.00 | 100 | 939.3 |
| 20260507044646 | 59 | 235 | 15.6 | 20.0 | 0.00 | 0.00 | 0.00 | 100 | 939.3 |
| 20260507044246 | 59 | 235 | 13.9 | 17.4 | 0.00 | 0.00 | 0.00 | 100 | 939.3 |